Lapse_Rate
3.5 4.8 5.3 7.7 6.5 6.5 6.5 6.5 6.5 6.5 6.5 7.5 7.8 7.2 6.6 7.3 6.6 6.5 6.9 7.5 7.1 7.9 7.9 6.5 5.4 5.2 5.1 5.1 5.1 5.1 5.1 5.1 5.3 5.4 5.6 5.8 6.0 6.1 6.2 6.0 5.8 6.0 6.0 6.2 6.0 6.0 6.0 5.9 5.8
5.1 5.7 7.0 7.8 6.5 6.5 6.5 6.5 6.5 6.5 7.1 7.9 7.8 7.6 7.1 6.5 8.3 7.3 6.3 6.3 8.0 8.2 7.8 6.9 5.2 5.0 4.9 4.8 4.7 4.7 4.7 4.6 4.6 4.8 4.8 4.9 5.2 5.5 5.8 5.8 5.6 5.5 5.6 5.8 5.9 5.9 6.0 5.8 5.6
5.2 5.7 7.7 6.5 6.5 6.5 6.5 6.5 6.5 7.0 7.7 7.5 7.2 8.0 7.6 7.2 8.4 6.9 5.9 6.7 8.1 7.8 7.2 5.6 4.9 4.6 4.3 4.2 4.0 4.0 4.0 4.0 4.1 4.2 4.2 4.3 4.6 4.7 4.8 5.0 4.9 5.0 5.2 5.5 5.7 5.7 5.8 5.9 6.0
7.5 7.9 7.8 6.5 6.5 6.5 6.5 6.5 6.9 7.0 7.5 7.8 7.7 6.7 8.1 7.9 7.6 8.2 6.3 8.3 8.4 8.0 7.4 5.1 4.5 4.0 3.6 3.6 3.6 3.7 3.8 3.9 3.9 3.8 3.9 4.0 4.2 4.3 4.4 4.5 4.6 4.8 5.1 5.4 5.5 5.4 5.3 5.4 5.7
7.4 8.0 6.5 6.5 6.5 6.5 6.5 7.0 7.3 6.5 7.1 7.4 7.6 6.8 7.5 7.6 7.7 6.7 8.1 8.3 8.3 7.7 7.0 5.8 4.0 3.3 3.2 3.2 3.3 3.5 3.6 3.5 3.4 3.4 3.5 3.6 3.8 3.8 4.2 4.4 4.6 4.9 5.1 5.3 5.3 5.0 4.9 4.9 5.0
7.5 7.5 6.5 6.5 6.5 6.5 6.7 7.4 7.3 7.0 7.3 7.5 7.3 7.3 7.7 7.3 7.2 7.1 7.3 7.3 7.1 6.6 5.6 5.1 2.6 2.6 2.7 2.8 2.9 3.1 3.1 3.0 3.0 2.8 2.8 2.9 3.1 3.3 3.4 3.8 4.1 4.4 4.7 4.9 5.0 5.0 4.9 4.8 4.8
6.8 6.5 6.5 6.5 6.5 6.5 6.5 7.7 7.1 7.0 7.1 7.1 8.0 6.5 7.9 8.2 7.8 6.4 6.3 6.1 5.5 5.2 5.1 4.7 4.3 2.7 2.0 2.1 2.2 2.4 2.5 2.3 2.1 2.0 1.9 1.8 2.0 2.4 2.9 3.3 3.7 4.0 4.2 4.5 4.6 4.7 4.5 4.3 4.1
7.7 6.6 6.5 6.5 6.5 6.5 6.8 7.3 7.6 7.3 6.9 8.1 8.2 6.7 7.0 8.6 6.3 6.0 5.8 5.4 5.4 4.7 4.2 4.1 3.8 4.2 4.4 4.2 1.4 1.5 1.4 1.3 1.2 1.0 0.8 1.1 2.5 2.7 2.7 3.6 2.8 3.2 3.2 3.4 3.6 3.7 3.5 3.3 3.3
7.2 6.5 6.5 6.5 6.5 6.5 7.3 6.6 7.7 7.6 7.7 7.8 8.0 8.0 7.6 7.0 5.8 6.0 5.5 5.3 5.2 4.6 4.4 3.9 3.9 4.1 4.4 4.3 2.2 1.7 1.1 1.1 1.9 2.3 1.2 3.8 4.7 4.7 4.9 1.8 1.9 2.3 2.4 2.7 2.8 2.8 2.7 2.8 4.0
6.9 6.5 6.5 6.6 6.6 6.5 7.1 7.1 7.4 7.2 7.3 7.3 7.6 5.1 6.4 5.5 5.9 6.3 6.6 6.4 5.8 5.3 4.2 4.4 3.9 3.8 4.2 4.1 3.8 3.9 3.9 3.9 3.9 3.8 4.0 4.8 4.5 3.6 3.6 2.5 2.1 2.6 2.5 2.8 2.9 2.9 3.4 4.7 5.9
6.9 6.5 6.5 6.8 7.1 7.3 7.0 7.0 7.6 7.0 6.5 7.3 7.3 6.9 6.5 6.6 6.8 7.1 8.2 7.8 6.9 5.8 5.1 4.2 3.9 3.5 4.2 4.2 4.3 4.5 4.5 4.3 4.2 4.1 4.3 4.7 5.0 5.1 5.4 5.7 5.4 5.2 4.2 5.4 5.4 5.8 5.6 5.3 5.7
6.5 6.9 6.9 7.0 7.3 7.2 6.8 7.4 7.0 7.2 7.2 7.2 7.8 5.7 6.3 7.9 7.1 7.8 8.4 8.0 6.8 5.7 5.0 4.2 4.0 4.1 3.9 4.1 4.4 4.4 4.9 4.6 4.7 4.4 4.5 4.9 5.6 5.4 5.8 6.0 5.6 5.7 5.7 5.8 5.7 6.1 6.2 6.1 5.8
6.5 6.7 7.2 7.3 7.3 7.3 7.4 6.9 6.9 7.1 6.5 5.3 5.6 5.2 7.1 8.3 8.3 7.7 7.6 7.6 6.8 6.1 5.4 5.0 4.5 4.5 3.8 3.9 3.9 4.1 4.6 4.9 4.6 4.8 4.3 4.7 5.2 5.5 5.9 6.1 5.9 5.8 5.8 6.0 6.2 6.2 6.4 6.3 6.2
7.1 7.0 7.0 7.2 7.2 7.2 6.7 6.8 7.1 7.4 6.6 5.6 5.2 6.8 8.1 8.2 8.0 7.2 6.0 6.6 6.3 6.5 5.9 5.6 5.1 4.3 3.9 4.4 4.3 4.5 4.3 4.3 4.7 4.7 4.6 4.8 5.0 5.1 5.4 6.1 5.7 5.8 5.4 5.2 5.5 5.4 5.7 5.9 5.7
7.3 6.5 6.5 6.8 7.0 6.7 7.2 6.5 6.5 7.6 7.5 7.4 7.6 7.7 7.9 8.0 7.0 6.9 7.3 7.0 7.3 6.8 6.2 5.9 5.3 4.7 4.8 4.5 4.6 4.9 4.4 4.1 4.8 4.9 4.4 4.5 4.8 5.0 5.4 5.8 5.7 5.1 4.8 4.8 5.0 5.5 5.4 5.7 5.7
6.5 6.5 6.5 6.5 6.7 6.8 6.8 6.5 6.6 7.6 7.6 7.4 7.7 7.6 6.8 6.4 6.5 7.3 6.8 6.9 6.9 6.8 6.3 6.0 5.4 5.4 5.2 5.0 4.7 5.1 4.8 4.8 4.7 4.6 4.5 4.2 4.4 4.5 5.2 5.7 5.7 4.7 4.9 5.0 5.6 5.6 5.6 5.9 5.8
6.5 6.5 6.5 6.5 6.8 6.5 6.5 6.5 6.8 7.6 7.4 7.3 7.6 7.9 7.9 8.0 6.6 6.5 6.4 7.0 6.7 6.6 6.3 5.8 5.5 5.6 5.2 4.8 4.9 4.9 4.6 5.0 4.9 4.7 4.7 4.1 4.0 4.3 5.1 5.4 5.2 4.8 5.3 5.6 5.5 5.9 5.3 5.9 5.9
6.5 6.5 6.5 6.5 6.5 6.5 6.5 6.5 6.5 7.3 7.3 7.3 7.6 7.8 7.9 8.0 7.4 6.4 6.1 6.2 6.0 6.1 6.1 6.2 5.7 5.4 5.0 4.9 5.1 5.1 4.9 5.2 4.9 5.1 4.8 4.2 4.6 4.2 4.8 5.1 5.1 4.9 5.9 6.0 5.8 5.8 6.0 5.4 5.7
6.5 6.5 6.5 6.5 6.5 6.5 6.5 6.5 6.5 7.0 7.2 7.2 7.5 7.7 7.8 8.0 7.1 4.7 4.6 4.9 4.9 5.1 5.4 5.8 5.7 5.8 5.4 5.8 6.1 6.2 6.6 6.1 5.8 5.2 4.6 4.3 4.4 4.2 4.5 5.1 5.4 5.2 5.7 5.3 5.1 5.4 5.7 6.4 5.6
6.5 6.5 6.5 6.5 6.5 6.5 6.5 6.5 6.5 6.8 6.9 7.2 7.3 7.6 7.7 7.9 7.5 4.6 3.9 3.6 4.1 5.0 5.5 5.7 5.9 5.5 5.3 5.1 5.4 5.4 5.7 5.7 5.6 5.1 4.8 4.5 4.5 4.2 4.3 4.5 5.2 5.0 5.4 5.6 5.3 4.9 5.5 5.9 5.5
6.5 6.5 6.5 6.5 6.5 6.5 6.5 6.5 6.5 6.6 7.1 7.3 7.5 7.6 7.7 7.8 8.0 6.2 4.2 4.1 4.3 5.0 5.6 6.0 5.8 5.4 5.2 4.9 4.7 4.6 4.5 4.4 5.1 5.8 5.8 5.1 4.6 4.3 4.0 4.2 4.4 4.7 4.6 5.2 4.9 5.1 5.1 6.1 6.2
6.5 6.5 6.5 6.5 6.5 6.5 6.5 6.5 6.5 6.5 6.5 6.7 7.2 7.5 7.7 7.8 6.8 5.7 5.1 4.8 5.3 5.7 5.4 5.2 5.1 5.0 5.0 4.9 4.8 5.1 5.9 6.3 6.9 6.3 6.1 5.8 4.9 4.7 4.2 3.8 4.1 4.5 4.8 4.7 5.0 5.4 5.1 5.1 6.5
6.5 6.5 6.5 6.5 6.5 6.5 6.5 6.5 6.5 6.5 6.5 6.5 7.0 7.4 7.6 7.8 7.7 6.3 6.3 6.1 5.9 5.4 5.0 4.9 5.0 5.0 4.7 4.4 4.4 4.9 5.4 6.0 6.1 5.9 5.8 6.1 5.8 5.1 5.0 4.5 4.5 4.5 4.5 4.7 4.7 4.9 4.9 5.3 5.6
6.5 6.5 6.5 6.5 6.5 6.5 6.5 6.5 6.5 6.5 6.5 6.5 6.9 7.4 7.6 7.5 7.1 6.6 6.1 5.9 5.7 4.8 4.6 4.5 4.5 4.2 3.9 3.9 4.2 4.3 4.7 5.3 5.6 6.0 6.1 6.7 6.5 6.3 5.7 5.0 4.7 4.5 4.6 4.8 4.9 4.7 4.6 5.0 5.3
6.5 6.5 6.5 6.5 6.5 6.5 6.5 6.5 6.5 6.5 6.5 6.6 6.7 7.4 7.8 7.9 7.9 6.5 6.4 6.3 5.7 4.8 4.4 4.5 4.8 4.6 4.3 4.4 4.5 4.8 4.8 4.8 4.9 5.5 6.0 6.2 6.6 6.7 6.6 5.9 5.6 5.4 4.9 4.5 4.4 4.6 4.6 4.9 5.0
6.5 6.5 6.5 6.5 6.5 6.5 6.5 6.5 6.5 6.5 6.9 7.2 7.4 7.6 7.9 7.9 7.8 6.6 6.2 5.9 5.1 4.5 4.4 4.7 4.5 4.6 4.5 4.7 4.7 4.8 4.7 4.9 5.0 4.9 5.3 5.8 5.8 5.9 5.6 5.4 5.2 5.2 5.1 4.9 4.8 4.8 4.8 5.1 5.1
6.5 6.5 6.5 6.5 6.5 6.5 6.5 6.5 6.5 6.5 6.5 6.9 7.1 7.4 7.6 7.7 7.2 6.1 5.3 5.3 5.2 4.8 4.3 4.2 4.5 4.7 4.9 5.3 5.6 5.6 5.5 5.2 5.1 5.1 5.2 5.5 5.3 5.1 5.2 4.9 4.9 5.0 5.0 5.0 5.2 5.1 5.2 5.4 5.3
6.5 6.5 6.5 6.5 6.5 6.5 6.5 6.5 6.5 6.5 6.5 6.5 6.7 7.1 7.5 7.7 6.8 5.9 5.5 5.1 4.7 4.2 3.9 4.0 4.4 4.8 5.0 5.5 5.7 5.6 5.3 5.1 5.1 5.3 5.0 5.0 5.2 5.0 4.7 4.7 4.7 4.9 5.2 5.4 5.2 5.1 5.4 5.3 5.3
6.5 6.5 6.5 6.5 6.5 6.5 6.5 6.5 6.5 6.5 6.5 6.5 6.9 7.3 7.5 7.5 7.4 6.4 5.6 4.9 4.5 4.3 4.4 4.6 5.0 5.3 5.6 5.8 6.0 5.9 5.3 5.0 5.2 5.2 5.0 4.6 4.7 4.6 4.5 4.4 4.4 4.8 5.0 5.3 5.3 5.5 5.5 5.4 5.4
6.5 6.5 6.5 6.5 6.5 6.5 6.5 6.5 6.5 6.5 6.7 6.9 7.0 7.3 7.7 7.8 7.6 5.9 5.4 5.0 4.7 5.0 5.0 5.4 5.5 5.7 5.3 5.1 5.5 5.2 5.0 5.0 5.1 4.9 4.6 4.6 4.7 5.0 4.8 4.8 5.1 5.4 5.5 5.6 5.8 5.6 5.8 5.8 5.8
Wind_Speed
4 4 2 3 4 4 5 3 1 7 6 4 10 3 2 7 2 3 5 9 7 9 11 13 13 14 13 13 12 12 12 12 12 12 11 11 12 12 11 10 11 11 10 8 8 9 8 7 7
2 3 3 1 5 7 5 4 9 7 5 10 9 5 3 4 5 8 5 6 9 10 10 12 13 13 13 12 12 12 12 11 11 11 11 12 12 11 10 9 9 9 9 10 10 10 10 10 8
3 2 4 4 5 9 3 6 6 6 11 7 5 3 2 4 8 4 8 8 10 10 11 12 13 13 12 12 11 10 11 11 11 11 12 12 11 12 12 10 10 10 10 9 10 9 9 9 9
4 3 2 6 13 8 4 5 7 12 4 4 4 7 5 3 6 5 9 10 9 9 11 11 11 11 12 11 11 11 11 11 11 11 11 11 11 11 11 11 10 10 9 9 9 9 10 10 9
3 3 7 8 14 4 5 3 12 13 9 8 5 6 6 3 6 12 10 8 8 8 9 10 11 11 11 11 11 10 10 11 11 11 11 11 11 11 11 10 11 12 11 9 9 10 11 11 10
5 3 9 14 16 8 4 8 11 8 7 7 5 10 7 6 13 10 8 8 7 7 7 7 10 11 11 11 10 10 10 10 11 11 11 11 11 11 10 11 11 11 12 11 11 11 11 11 11
7 8 12 17 11 9 7 11 12 9 8 7 7 8 5 11 12 10 9 8 8 7 7 7 7 7 10 10 10 9 10 10 10 10 11 11 11 10 11 11 12 12 12 11 11 10 11 11 10
4 5 10 9 13 10 10 12 5 9 7 6 1 4 6 14 13 10 8 7 6 6 6 6 6 5 5 6 8 9 9 9 10 11 9 7 5 8 9 10 12 11 11 11 12 11 11 11 10
2 7 12 12 12 10 13 10 4 1 8 3 2 2 3 19 15 11 9 6 5 4 4 4 5 5 4 5 5 6 7 6 6 6 8 4 7 8 8 11 12 12 11 11 11 11 10 10 4
8 10 13 4 6 9 16 11 11 8 9 4 5 5 12 17 15 14 11 8 6 5 4 3 4 4 3 4 4 4 4 6 7 7 7 7 7 7 6 6 8 9 11 9 9 9 8 7 7
7 13 5 5 3 7 14 10 6 9 8 7 10 12 17 16 14 13 11 9 8 6 4 3 3 3 3 3 2 3 4 4 5 7 7 6 5 6 6 6 7 8 8 8 8 8 8 8 8
10 2 2 4 2 8 12 11 7 5 4 2 4 15 19 17 15 13 11 9 8 6 5 3 2 2 3 2 3 3 3 4 5 6 7 6 6 6 6 7 7 7 8 9 9 8 9 8 8
6 6 4 3 5 5 9 6 6 5 2 5 11 15 16 15 14 11 8 7 6 6 6 5 3 2 2 2 2 2 3 3 4 5 6 6 6 5 7 7 7 8 8 9 8 8 9 8 9
7 8 8 5 5 3 8 5 4 2 3 8 11 13 13 13 13 10 9 8 8 7 7 5 3 2 2 1 1 1 2 2 3 4 5 5 4 5 5 5 6 7 8 8 8 7 6 6 8
14 10 9 5 2 4 4 5 4 3 4 8 9 10 11 10 10 10 9 9 8 7 7 6 4 3 2 1 0 0 1 0 2 3 3 4 4 5 5 5 5 7 7 7 6 6 6 5 6
7 9 10 4 1 1 5 13 6 3 7 9 9 9 10 10 10 8 7 7 7 7 9 7 5 4 2 1 1 1 1 1 1 1 1 2 4 5 4 4 4 6 6 6 6 5 5 5 5
6 13 12 7 3 2 7 6 6 3 7 9 9 10 9 9 8 8 8 8 7 8 9 8 6 4 2 1 1 2 2 3 2 3 2 1 1 3 3 4 4 5 6 5 5 5 6 5 6
16 12 7 10 3 3 7 3 4 3 7 9 9 9 9 8 8 5 6 6 7 8 8 7 5 4 3 2 2 2 3 4 4 4 4 3 2 2 3 3 4 5 4 4 5 6 5 4 6
13 14 15 5 2 3 6 5 6 5 5 8 9 9 9 8 4 3 3 6 8 8 8 7 6 4 3 3 3 3 3 3 3 5 5 5 5 4 3 3 4 4 3 4 5 5 6 4 6
12 16 7 5 4 1 3 8 6 6 5 7 9 9 9 7 6 4 4 6 8 8 7 6 4 3 3 3 2 3 3 3 4 5 6 6 6 5 5 3 3 4 4 4 4 4 4 2 4
6 12 8 6 6 4 1 5 7 6 6 5 6 5 5 7 6 5 4 6 7 7 6 4 3 3 4 5 3 4 4 4 4 4 4 4 5 6 7 5 5 4 4 4 4 4 4 4 2
8 2 7 13 8 4 2 4 7 10 9 9 8 7 5 5 4 3 6 7 7 6 3 2 3 4 4 5 6 7 6 6 4 4 3 4 6 6 8 7 7 6 5 5 4 4 4 3 5
6 5 7 7 5 3 2 3 4 4 11 15 11 8 5 3 4 6 7 7 6 3 2 1 3 4 5 6 7 6 7 6 6 5 6 5 6 7 8 8 8 6 5 5 6 6 5 4 5
13 9 6 4 2 1 2 2 6 6 5 5 12 10 7 5 7 7 6 6 6 4 3 3 3 3 3 3 5 7 8 8 7 7 6 4 4 4 6 7 8 8 7 7 6 7 8 7 7
0 4 3 2 1 2 1 2 10 2 2 1 13 12 10 8 8 8 7 6 5 4 3 3 4 4 5 3 2 4 6 7 7 6 5 5 4 4 5 6 6 5 8 9 9 8 9 8 8
3 2 3 5 5 3 1 6 2 3 1 1 8 11 11 10 8 8 7 6 5 3 3 3 4 4 5 4 4 3 3 3 3 3 3 3 4 5 7 6 7 8 9 10 10 7 8 9 9
4 1 1 6 2 1 2 4 7 4 3 3 8 10 11 10 9 9 7 5 4 2 2 2 2 3 4 4 3 4 4 4 4 4 3 3 4 5 7 8 7 8 8 9 9 8 10 10 11
2 5 2 1 2 3 2 4 3 1 9 8 10 12 11 10 10 8 6 5 3 2 2 2 2 3 3 3 4 4 5 5 5 4 5 5 5 6 7 7 8 8 8 8 9 9 10 11 10
3 2 4 2 2 1 3 1 2 1 2 11 12 12 12 12 10 9 7 5 4 3 3 3 3 3 4 4 4 5 5 5 5 5 5 6 7 7 8 8 8 9 9 9 9 10 11 12 12
2 1 1 2 3 2 2 4 2 2 4 5 10 11 12 11 9 9 8 7 6 5 5 4 4 4 3 3 3 3 4 4 4 5 6 6 7 7 8 9 9 10 10 10 10 11 11 13 14
Wind_Direction
287 300 274 238 234 239 242 217 271 174 175 101 149 198 178 25 347 28 113 104 134 104 100 92 84 80 74 67 61 56 50 44 39 36 32 27 20 16 16 16 15 17 15 12 360 2 2 357 354
253 215 226 194 248 235 225 185 205 172 105 134 129 130 134 82 62 105 102 126 126 107 99 89 83 75 68 61 55 50 45 42 40 35 30 24 19 14 9 11 13 15 10 13 18 16 13 10 2
212 270 203 210 235 235 259 186 167 133 143 160 133 25 75 89 98 108 109 136 121 107 99 89 81 72 66 60 56 51 47 43 38 34 31 26 23 23 20 15 14 12 11 9 4 3 1 358 354
184 179 152 228 223 240 257 163 156 147 167 193 164 117 104 31 117 121 142 137 122 111 102 89 80 72 66 61 58 56 51 50 45 42 37 32 28 26 25 25 18 8 360 358 2 2 360 352 349
195 210 196 217 231 233 219 187 166 164 156 161 185 133 103 100 120 130 137 135 122 105 95 85 76 67 65 60 60 56 57 53 48 46 40 37 37 36 31 32 28 26 25 22 21 17 14 13 10
183 243 201 209 212 199 198 177 167 175 160 148 154 135 124 129 144 135 134 120 111 105 92 85 74 66 64 61 59 56 58 56 54 50 44 39 35 35 34 33 31 29 26 24 22 17 14 14 14
221 202 208 214 209 197 179 166 182 175 159 161 135 140 116 157 140 139 129 120 110 99 92 79 71 80 75 64 62 62 66 59 54 49 43 38 37 34 34 34 29 25 20 17 14 11 7 3 3
239 224 193 204 199 192 154 162 186 193 146 121 237 166 162 162 146 137 132 122 115 105 96 87 79 72 69 77 66 70 65 59 53 46 38 31 42 35 35 23 24 20 17 12 8 5 359 353 352
226 212 206 195 197 181 158 166 135 118 142 153 105 78 88 141 144 144 142 141 136 116 101 89 75 71 70 66 74 100 78 65 49 41 31 14 23 23 24 35 20 22 18 18 12 6 357 342 306
218 213 202 209 171 173 167 182 150 165 155 158 151 101 141 151 157 161 172 167 169 151 120 99 86 75 71 71 60 58 56 45 37 33 23 20 21 23 13 40 28 27 16 23 15 8 354 335 336
186 211 162 153 135 168 161 163 156 160 185 178 184 155 161 164 170 174 178 179 175 150 141 125 108 79 62 60 52 54 46 41 47 35 25 20 19 13 20 14 16 8 3 4 359 2 8 358 350
183 153 165 138 157 158 168 140 152 196 96 96 116 154 161 174 175 181 181 179 170 171 148 138 124 106 77 58 50 55 43 52 46 35 18 19 18 16 13 13 9 7 358 356 360 357 352 351 349
180 156 112 121 136 136 140 158 148 129 59 117 130 152 168 175 178 181 185 182 177 179 169 170 160 126 90 65 74 61 55 53 54 37 28 22 24 15 5 10 12 10 356 357 355 355 345 347 345
142 138 126 112 120 111 165 139 183 137 130 128 149 162 170 177 179 179 191 196 191 190 182 170 169 133 119 77 64 85 65 54 43 42 25 25 24 18 13 7 12 7 359 353 350 351 340 346 341
143 121 126 91 101 131 166 148 170 126 165 148 157 159 167 179 182 202 198 205 198 194 178 183 170 162 168 130 96 220 121 97 41 33 26 13 14 20 9 11 12 2 348 345 351 347 348 350 343
161 162 159 112 151 133 232 185 156 167 184 172 165 166 174 187 202 212 209 214 201 192 189 175 175 180 173 147 207 237 212 232 225 301 5 9 14 10 10 3 11 355 340 342 344 355 353 350 348
186 172 173 142 53 172 218 154 163 164 201 184 181 178 182 190 207 215 221 218 204 199 184 183 183 182 182 182 249 258 258 244 238 258 287 335 358 354 352 354 357 343 336 349 350 356 355 347 351
174 158 155 150 130 182 190 150 154 167 205 202 190 192 198 201 204 203 219 210 203 190 187 182 181 183 192 217 240 244 249 241 241 254 260 260 265 283 313 330 344 343 337 353 358 354 353 350 344
160 159 155 120 78 166 187 179 182 184 215 206 206 204 207 210 169 185 205 193 185 184 185 186 189 191 217 244 260 251 254 236 241 240 249 248 250 249 275 311 317 332 340 348 351 341 341 353 351
151 149 127 100 49 217 177 225 201 208 223 230 229 224 226 220 201 175 168 177 187 182 187 186 197 222 241 252 248 269 268 263 274 255 244 243 245 247 258 276 299 309 312 324 336 343 335 323 0
118 170 159 139 132 80 218 232 207 206 228 224 233 244 238 231 219 190 178 177 175 178 180 193 228 259 255 240 242 242 246 247 245 229 234 226 239 246 254 256 266 278 282 296 308 313 329 328 324
143 66 130 134 159 171 330 240 207 206 216 221 216 211 207 199 192 169 165 165 165 154 157 221 265 266 255 235 243 249 266 274 272 271 265 259 252 252 249 253 255 263 272 279 291 294 295 291 304
114 134 119 126 99 159 95 247 206 181 228 222 207 197 185 167 160 146 146 143 137 131 110 327 290 281 271 253 248 262 262 269 276 272 272 264 262 253 253 252 256 258 263 269 272 274 265 267 276
130 114 84 83 104 208 76 275 240 198 226 202 188 183 169 157 148 134 128 138 123 105 82 51 9 8 324 276 260 259 270 278 277 274 273 276 283 282 266 259 259 263 266 267 266 261 258 259 258
133 173 107 125 185 241 69 216 254 219 167 271 186 175 168 159 156 153 152 142 124 97 63 38 21 30 8 345 314 298 291 292 288 290 285 295 299 303 297 283 267 264 265 266 263 259 258 256 254
131 300 179 162 179 153 49 230 246 15 106 82 179 168 163 167 164 159 149 139 125 95 51 34 24 24 19 22 19 8 359 332 320 315 301 300 307 309 308 298 291 284 278 272 267 264 261 261 256
150 186 72 103 60 247 191 266 243 260 201 158 162 168 175 173 172 165 155 146 132 107 65 31 27 35 32 37 45 47 38 32 24 16 0 343 329 320 311 310 303 297 288 279 274 266 264 259 258
19 123 130 63 130 236 208 269 271 225 209 190 190 192 184 180 178 172 164 158 150 138 117 89 62 56 49 61 57 54 48 41 35 34 22 3 350 335 326 329 325 316 305 293 285 278 273 267 265
146 138 63 76 351 302 316 50 196 284 241 212 209 204 194 191 188 178 173 167 163 153 142 121 107 93 82 74 68 65 54 39 31 22 8 357 337 335 330 329 322 313 309 306 297 287 285 277 274
6 40 309 262 168 71 347 278 114 277 279 264 230 211 203 201 191 183 179 180 178 171 152 139 129 114 94 85 79 62 43 28 20 9 357 348 339 334 334 330 322 317 314 310 303 297 292 287 283